NAX146 EDDM-EKCH

Flight info

Callsign NAX146
Flight time 1h 12m
Altitude 36000
Route INPUD3Q INPUD Y102 UPALA M726 LASGA DCT BKD DCT LUWIL DCT BERIM/N0443F370 DCT MAKEL N851 GESKA Z711 MONAK
Aircraft B738/M-SDE2E3FGHIRWXY/LB1

Departure

Time 2026-05-04 17:05
Airport Munich Airport (EDDM)

Arrival

Time 2026-05-04 18:18
Airport Copenhagen Kastrup Airport (EKCH)
Time Latitude Longitude Altitude Speed Heading
2026-05-04 16:44 48.35021 11.77968 1470 ft 0 kts 83°
2026-05-04 16:55 48.35016 11.77911 1479 ft 2 kts 83°
2026-05-04 16:56 48.34989 11.77881 1470 ft 3 kts 353°
2026-05-04 16:56 48.34970 11.77884 1477 ft 0 kts 353°
2026-05-04 16:58 48.34995 11.77880 1470 ft 7 kts 354°
2026-05-04 16:59 48.35193 11.77845 1481 ft 20 kts 353°
2026-05-04 17:00 48.35711 11.77757 1478 ft 14 kts 354°
2026-05-04 17:00 48.35884 11.77689 1473 ft 1 kts 354°
2026-05-04 17:01 48.35897 11.77687 1477 ft 0 kts 353°
2026-05-04 17:03 48.35930 11.77680 1473 ft 13 kts 347°
2026-05-04 17:03 48.35957 11.77556 1479 ft 14 kts 262°
2026-05-04 17:03 48.35928 11.77175 1484 ft 20 kts 263°
2026-05-04 17:04 48.36089 11.76962 1478 ft 17 kts 354°
2026-05-04 17:04 48.36294 11.77001 1472 ft 16 kts 79°
2026-05-04 17:05 48.36398 11.78341 1484 ft 128 kts 83°
2026-05-04 17:05 48.36637 11.81845 2099 ft 190 kts 86°
2026-05-04 17:06 48.37150 11.85811 3409 ft 208 kts 55°
2026-05-04 17:06 48.38319 11.87216 3585 ft 230 kts 20°
2026-05-04 17:07 48.41594 11.86630 4384 ft 251 kts 331°
2026-05-04 17:07 48.42483 11.85521 4763 ft 253 kts 313°
2026-05-04 17:07 48.44039 11.82780 5340 ft 267 kts 310°
2026-05-04 17:07 48.45268 11.80575 5842 ft 279 kts 310°
2026-05-04 17:08 48.46520 11.78335 6619 ft 280 kts 309°
2026-05-04 17:08 48.49063 11.73819 8098 ft 285 kts 308°
2026-05-04 17:08 48.50351 11.71540 8856 ft 287 kts 308°
2026-05-04 17:09 48.51652 11.69243 9596 ft 289 kts 307°
2026-05-04 17:09 48.52961 11.66933 10297 ft 291 kts 307°
2026-05-04 17:09 48.54284 11.64595 10936 ft 295 kts 307°
2026-05-04 17:10 48.57075 11.59914 12248 ft 308 kts 320°
2026-05-04 17:10 48.63636 11.55859 13065 ft 366 kts 337°
2026-05-04 17:11 48.66036 11.54484 13674 ft 372 kts 336°
2026-05-04 17:11 48.68432 11.53098 14301 ft 375 kts 336°
2026-05-04 17:11 48.73319 11.50268 15713 ft 378 kts 336°
2026-05-04 17:12 48.75782 11.48840 16385 ft 381 kts 336°
2026-05-04 17:12 48.80760 11.45948 17724 ft 385 kts 336°
2026-05-04 17:13 48.88345 11.41528 19512 ft 393 kts 336°
2026-05-04 17:14 48.96081 11.37006 21145 ft 401 kts 336°
2026-05-04 17:14 48.98696 11.35474 21711 ft 403 kts 336°
2026-05-04 17:14 49.03965 11.32382 22740 ft 409 kts 336°
2026-05-04 17:15 49.06631 11.30815 23211 ft 412 kts 336°
2026-05-04 17:15 49.12018 11.27642 24085 ft 418 kts 336°
2026-05-04 17:16 49.17465 11.24429 24924 ft 422 kts 336°
2026-05-04 17:16 49.25169 11.21928 25973 ft 435 kts 357°
2026-05-04 17:17 49.28208 11.22001 26334 ft 439 kts 359°
2026-05-04 17:17 49.37452 11.22802 27395 ft 447 kts
2026-05-04 17:18 49.40559 11.23096 27751 ft 449 kts
2026-05-04 17:18 49.46800 11.23646 28467 ft 452 kts
2026-05-04 17:19 49.53169 11.24169 28955 ft 460 kts 360°
2026-05-04 17:19 49.59586 11.24685 29654 ft 463 kts 360°
2026-05-04 17:20 49.66048 11.25206 30215 ft 467 kts 359°
2026-05-04 17:20 49.72544 11.25733 30796 ft 468 kts 359°
2026-05-04 17:20 49.75781 11.25996 31237 ft 464 kts 359°
2026-05-04 17:21 49.82208 11.26522 31870 ft 463 kts 360°
2026-05-04 17:21 49.88673 11.27048 32368 ft 466 kts 359°
2026-05-04 17:22 49.91909 11.27313 32731 ft 464 kts 359°
2026-05-04 17:22 49.95124 11.27577 33089 ft 462 kts 359°
2026-05-04 17:23 50.04763 11.28368 33930 ft 462 kts 360°
2026-05-04 17:23 50.07977 11.28632 34200 ft 462 kts 360°
2026-05-04 17:23 50.14376 11.29160 34753 ft 459 kts 359°
2026-05-04 17:24 50.17520 11.29421 35008 ft 458 kts 359°
2026-05-04 17:24 50.27091 11.30212 35632 ft 459 kts 359°
2026-05-04 17:25 50.30278 11.30477 35866 ft 458 kts 359°
2026-05-04 17:26 50.43120 11.31546 35951 ft 461 kts 359°
2026-05-04 17:27 50.58893 11.32872 35974 ft 454 kts 359°
2026-05-04 17:28 50.71530 11.33936 35975 ft 455 kts 359°
2026-05-04 17:29 50.90562 11.35553 35981 ft 458 kts 359°
2026-05-04 17:31 51.06446 11.36913 35975 ft 459 kts 359°
2026-05-04 17:32 51.22391 11.38288 35970 ft 459 kts 359°
2026-05-04 17:33 51.35117 11.40342 35976 ft 461 kts
2026-05-04 17:34 51.47795 11.43463 35969 ft 460 kts
2026-05-04 17:35 51.63639 11.47131 35957 ft 460 kts
2026-05-04 17:36 51.69965 11.48622 35952 ft 460 kts
2026-05-04 17:36 51.76298 11.50121 35954 ft 460 kts
2026-05-04 17:37 51.82636 11.51624 35941 ft 460 kts
2026-05-04 17:37 51.88973 11.53132 35934 ft 460 kts
2026-05-04 17:38 51.95313 11.54645 35947 ft 460 kts
2026-05-04 17:38 52.01607 11.56151 35953 ft 461 kts
2026-05-04 17:39 52.11123 11.58436 35968 ft 460 kts
2026-05-04 17:39 52.17459 11.59963 35970 ft 460 kts
2026-05-04 17:40 52.23786 11.61492 35972 ft 460 kts
2026-05-04 17:40 52.30125 11.63028 35968 ft 460 kts
2026-05-04 17:41 52.36459 11.64567 35968 ft 460 kts
2026-05-04 17:41 52.42786 11.66110 35968 ft 460 kts
2026-05-04 17:42 52.49113 11.67657 35970 ft 460 kts
2026-05-04 17:42 52.55443 11.69209 35972 ft 459 kts
2026-05-04 17:43 52.61763 11.70763 35959 ft 460 kts
2026-05-04 17:43 52.68087 11.72323 35984 ft 459 kts
2026-05-04 17:44 52.74360 11.73875 35967 ft 459 kts
2026-05-04 17:44 52.80715 11.75451 35961 ft 459 kts
2026-05-04 17:45 52.86979 11.77010 35961 ft 458 kts
2026-05-04 17:45 52.93283 11.78582 35962 ft 458 kts
2026-05-04 17:46 52.99583 11.80159 35962 ft 458 kts
2026-05-04 17:46 53.05884 11.81741 35962 ft 458 kts
2026-05-04 17:47 53.12182 11.83326 35964 ft 458 kts
2026-05-04 17:47 53.18490 11.84918 35970 ft 459 kts
2026-05-04 17:48 53.24801 11.86517 35968 ft 459 kts
2026-05-04 17:48 53.31118 11.88121 35962 ft 459 kts
2026-05-04 17:49 53.37395 11.89720 35953 ft 460 kts
2026-05-04 17:49 53.43716 11.91336 35971 ft 460 kts
2026-05-04 17:50 53.50025 11.92955 35618 ft 457 kts
2026-05-04 17:50 53.53128 11.93758 35567 ft 443 kts
2026-05-04 17:50 53.56155 11.94544 35553 ft 440 kts
2026-05-04 17:51 53.62242 11.96104 35574 ft 447 kts
2026-05-04 17:51 53.68442 11.97696 35608 ft 451 kts
2026-05-04 17:52 53.74640 11.99306 35559 ft 450 kts
2026-05-04 17:52 53.77727 12.00111 35327 ft 448 kts
2026-05-04 17:52 53.80794 12.00913 34985 ft 445 kts
2026-05-04 17:53 53.83838 12.01710 34603 ft 441 kts
2026-05-04 17:53 53.86854 12.02500 34198 ft 437 kts
2026-05-04 17:53 53.89841 12.03284 33781 ft 432 kts
2026-05-04 17:53 53.92794 12.04059 33339 ft 428 kts
2026-05-04 17:54 53.95719 12.04829 32996 ft 421 kts
2026-05-04 17:54 53.98602 12.05590 32740 ft 420 kts
2026-05-04 17:54 54.01521 12.06350 32370 ft 432 kts
2026-05-04 17:54 54.04556 12.07129 31955 ft 450 kts
2026-05-04 17:55 54.07709 12.07942 31512 ft 463 kts
2026-05-04 17:55 54.10900 12.08783 31056 ft 466 kts
2026-05-04 17:55 54.14130 12.09641 30615 ft 473 kts
2026-05-04 17:55 54.17402 12.10513 30174 ft 477 kts
2026-05-04 17:56 54.20676 12.11392 29612 ft 475 kts
2026-05-04 17:56 54.23926 12.12268 29046 ft 471 kts
2026-05-04 17:56 54.27144 12.13133 28490 ft 467 kts
2026-05-04 17:56 54.30292 12.13978 27953 ft 462 kts
2026-05-04 17:57 54.33457 12.14827 27420 ft 457 kts
2026-05-04 17:57 54.36575 12.15872 26885 ft 459 kts
2026-05-04 17:57 54.39631 12.17452 26412 ft 457 kts 11°
2026-05-04 17:57 54.42634 12.19172 25851 ft 455 kts 11°
2026-05-04 17:58 54.45606 12.20920 25366 ft 450 kts 11°
2026-05-04 17:58 54.48573 12.22652 24751 ft 450 kts 11°
2026-05-04 17:58 54.51530 12.24351 24160 ft 448 kts 11°
2026-05-04 17:58 54.54489 12.26027 23584 ft 446 kts 11°
2026-05-04 17:59 54.57432 12.27679 22904 ft 444 kts 11°
2026-05-04 17:59 54.60364 12.29316 22233 ft 442 kts 12°
2026-05-04 17:59 54.66190 12.32566 20954 ft 437 kts 13°
2026-05-04 18:00 54.69074 12.34179 20322 ft 435 kts 13°
2026-05-04 18:00 54.71945 12.35788 19706 ft 432 kts 13°
2026-05-04 18:00 54.74794 12.37388 19099 ft 430 kts 14°
2026-05-04 18:00 54.77629 12.38983 18509 ft 427 kts 14°
2026-05-04 18:01 54.80444 12.40569 17865 ft 424 kts 14°
2026-05-04 18:01 54.83242 12.42148 17199 ft 421 kts 14°
2026-05-04 18:01 54.86018 12.43717 16548 ft 419 kts 14°
2026-05-04 18:02 54.91524 12.46835 15302 ft 413 kts 14°
2026-05-04 18:02 54.94248 12.48381 14686 ft 411 kts 14°
2026-05-04 18:02 54.96959 12.49921 14108 ft 408 kts 14°
2026-05-04 18:02 54.99635 12.51446 13608 ft 398 kts 14°
2026-05-04 18:03 55.02214 12.52921 13060 ft 383 kts 14°
2026-05-04 18:03 55.04707 12.54348 12527 ft 371 kts 14°
2026-05-04 18:03 55.07122 12.55729 12007 ft 360 kts 14°
2026-05-04 18:03 55.09475 12.57074 11501 ft 354 kts 14°
2026-05-04 18:04 55.11812 12.58407 11013 ft 354 kts 14°
2026-05-04 18:04 55.14152 12.59744 10542 ft 353 kts 14°
2026-05-04 18:04 55.18819 12.62422 9561 ft 353 kts 14°
2026-05-04 18:05 55.21148 12.63763 9037 ft 352 kts 14°
2026-05-04 18:05 55.23462 12.65096 8510 ft 347 kts 14°
2026-05-04 18:05 55.25711 12.66383 8126 ft 333 kts 14°
2026-05-04 18:05 55.27862 12.67608 7862 ft 317 kts 14°
2026-05-04 18:06 55.31870 12.69887 7331 ft 293 kts 14°
2026-05-04 18:06 55.33788 12.70979 7081 ft 287 kts 14°
2026-05-04 18:06 55.35653 12.72044 6816 ft 277 kts 14°
2026-05-04 18:07 55.37452 12.73072 6569 ft 267 kts 14°
2026-05-04 18:07 55.39188 12.74065 6332 ft 258 kts 13°
2026-05-04 18:07 55.40881 12.75033 6071 ft 255 kts 14°
2026-05-04 18:07 55.42561 12.75993 5848 ft 252 kts 14°
2026-05-04 18:08 55.44207 12.76938 5609 ft 246 kts 14°
2026-05-04 18:08 55.45303 12.77567 5453 ft 245 kts 14°
2026-05-04 18:08 55.46925 12.78497 5200 ft 246 kts 14°
2026-05-04 18:08 55.48564 12.79437 4953 ft 249 kts 14°
2026-05-04 18:09 55.51876 12.81342 4378 ft 252 kts 15°
2026-05-04 18:09 55.55177 12.83249 4023 ft 245 kts 15°
2026-05-04 18:10 55.56768 12.84264 4000 ft 240 kts 19°
2026-05-04 18:10 55.58287 12.85367 4019 ft 233 kts 19°
2026-05-04 18:10 55.59781 12.86471 4021 ft 233 kts 20°
2026-05-04 18:10 55.61276 12.87608 4012 ft 234 kts 20°
2026-05-04 18:11 55.62773 12.88752 4013 ft 234 kts 20°
2026-05-04 18:11 55.64267 12.89904 3999 ft 234 kts 20°
2026-05-04 18:11 55.65755 12.91070 3994 ft 234 kts 20°
2026-05-04 18:11 55.67239 12.92239 3988 ft 233 kts 20°
2026-05-04 18:12 55.68718 12.93405 3997 ft 232 kts 20°
2026-05-04 18:12 55.70190 12.94568 4002 ft 232 kts 20°
2026-05-04 18:12 55.71648 12.95721 3993 ft 232 kts 20°
2026-05-04 18:12 55.73131 12.96851 3995 ft 231 kts 14°
2026-05-04 18:13 55.74682 12.96983 3997 ft 222 kts 341°
2026-05-04 18:13 55.75992 12.95665 4013 ft 216 kts 317°
2026-05-04 18:13 55.77216 12.91113 3893 ft 216 kts 258°
2026-05-04 18:14 55.76449 12.88785 3703 ft 224 kts 231°
2026-05-04 18:14 55.75392 12.86791 3396 ft 217 kts 228°
2026-05-04 18:14 55.74326 12.85014 3119 ft 204 kts 225°
2026-05-04 18:15 55.72329 12.81918 2647 ft 181 kts 225°
2026-05-04 18:15 55.70461 12.79030 2114 ft 167 kts 225°
2026-05-04 18:15 55.69610 12.77713 1889 ft 160 kts 226°
2026-05-04 18:16 55.68781 12.76427 1683 ft 159 kts 226°
2026-05-04 18:16 55.67951 12.75140 1468 ft 158 kts 225°
2026-05-04 18:16 55.67137 12.73881 1252 ft 151 kts 226°
2026-05-04 18:17 55.65555 12.71410 876 ft 151 kts 225°
2026-05-04 18:17 55.64760 12.70205 697 ft 150 kts 222°
2026-05-04 18:17 55.63191 12.67779 213 ft 149 kts 225°
2026-05-04 18:18 55.62411 12.66568 34 ft 149 kts 225°
2026-05-04 18:18 55.61709 12.65466 19 ft 118 kts 221°
2026-05-04 18:18 55.61267 12.64667 21 ft 46 kts 251°
2026-05-04 18:18 55.61213 12.64383 22 ft 16 kts 252°
2026-05-04 18:19 55.61212 12.64147 24 ft 0 kts 309°
2026-05-04 18:19 55.61213 12.64145 24 ft 2 kts 309°
2026-05-04 18:20 55.61255 12.64109 23 ft 12 kts 354°
2026-05-04 18:20 55.61366 12.64207 23 ft 24 kts 33°
2026-05-04 18:20 55.61507 12.64369 24 ft 24 kts 33°
2026-05-04 18:20 55.61635 12.64519 24 ft 19 kts 34°
2026-05-04 18:21 55.61750 12.64545 24 ft 14 kts 354°
2026-05-04 18:21 55.61808 12.64535 23 ft 0 kts 346°
2026-05-04 18:22 55.61899 12.64506 25 ft 24 kts 350°
2026-05-04 18:22 55.62057 12.64456 22 ft 22 kts 349°
2026-05-04 18:23 55.62208 12.64406 18 ft 22 kts 344°
2026-05-04 18:23 55.62307 12.64217 17 ft 21 kts 302°
2026-05-04 18:23 55.62386 12.64001 18 ft 21 kts 304°
2026-05-04 18:23 55.62476 12.63814 19 ft 20 kts 328°
2026-05-04 18:24 55.62592 12.63773 22 ft 7 kts 11°
2026-05-04 18:24 55.62601 12.63776 22 ft 0 kts 12°
2026-05-04 18:27 55.62620 12.63786 22 ft 7 kts 17°
2026-05-04 18:27 55.62651 12.63809 23 ft 4 kts 28°
2026-05-04 18:28 55.62673 12.63834 23 ft 4 kts 34°
2026-05-04 18:28 55.62703 12.63870 23 ft 9 kts 33°
2026-05-04 18:28 55.62747 12.63921 23 ft 5 kts 33°
2026-05-04 18:28 55.62777 12.63955 26 ft 5 kts 28°
2026-05-04 18:29 55.62810 12.63974 23 ft 5 kts 13°
2026-05-04 18:29 55.62843 12.63986 23 ft 5 kts 11°
2026-05-04 18:29 55.62872 12.63997 23 ft 2 kts 12°
2026-05-04 18:29 55.62877 12.63998 23 ft 0 kts 12°